Location: Unspecified
(0.0000°N, 0.0000°E)
Time: 03:30:12
(UTC+00:00)

JUGNU - Pass Details

Date: 14 December 2017
Orbit: 837 x 864 km, 20.0° (Epoch: 16 January)

Event Time Altitude Azimuth Distance (km) Brightness Sun altitude
Rises 21:14:19 0° 233° (SW) 3,392 ? -44.6°
Reaches altitude 10° 21:17:10 10° 222° (SW) 2,452 ? -45.2°
Enters shadow 21:17:44 12° 219° (SW) 2,280 ? -45.3°
